Погода в Чистоводовке

Украина / Харьковская область     49°23′56″N   37°20′13″E
темп.,
°C
ветер,
м/с
пор.,
м/с
влажн.,
%
обл.,
%
осадки,
мм/ч
давл.,
гПа
погр.,
м
24 января, вс
вс2423:00+2ююв5109798 0.0 1018257
02:00+2ююв5109799 0.0 1017264
05:00+3ююв51298100 0.0 1017295
08:00+3ююв61396100 0.0 1017299
11:00+4ююв51192100 0.0 1018367
14:00+3ююв51078100 0.0 1017288
17:00+2юв61177100 0.0 1017263
20:00+2юв61480100 0.0 1016321
25 января, пн
пн2523:00+1юв71478100 0.0 1016406
02:000юв71380100 0.0 1015402
05:00+1юв71289100 0.3 1014353
08:00+1ююв61193100 1.2 1014354
11:00+3ююв6129097 0.1 1014463
14:00+5ююв6119089 0.1 1013464
17:00+3юв6139227 0.0 1013326
20:00+2юв6159248 0.0 1012374
26 января, вт
вт2623:00+3юв81674100 0.0 1011447
02:00+3юв91970100 0.0 1008598
05:00+2ююв91789100 1.7 1007620
08:00+2ююз7158783 1.8 1009564
11:00+4ююз8137530 0.0 1012834
14:00+5ю497865 0.0 1011468
17:00+3ююв71487100 0.0 1011445
20:00+5ююв91992100 0.0 1009672
27 января, ср
ср2723:00+5ю71587100 0.1 1009468
02:00+4ю61292100 0.5 1010359
05:00+4юв3698100 1.9 1008181
08:00+4юв71582100 1.9 1007529
11:00+7юв71671100 0.0 1005576
14:00+8ююв81663100 0.0 1003711
17:00+6юв81670100 0.1 1002542
20:00+5юв81674100 0.3 1002579
28 января, чт
чт2823:00+4юв61280100 1.1 1001454
02:00+4ююв61385100 1.3 1000548
05:00+4юв61583100 0.1 999462
08:00+3ююв71386100 0.1 1000433
11:00+5ю61084100 0.0 1001695
14:00+4ююз7980100 0.0 1002889
17:00+1ююз5889100 1.0 1004592
20:000юз5886100 1.1 1005671